N395T KACK-KFRG

Flight info

Callsign N395T
Flight time 0h 52m
Altitude 14000
Route MVY SEY ARCAV ORCHA CCC V46 DPK
Aircraft PC12/L-SDFGRWY/S

Departure

Time 2026-04-29 23:56
Airport Nantucket Memorial Airport (KACK)

Arrival

Time 2026-04-30 00:48
Airport Republic Airport (KFRG)
Time Latitude Longitude Altitude Speed Heading
2026-04-29 23:15 41.25586 -70.06501 46 ft 0 kts 313°
2026-04-29 23:43 41.25591 -70.06517 46 ft 4 kts 252°
2026-04-29 23:43 41.25559 -70.06568 45 ft 9 kts 226°
2026-04-29 23:43 41.25522 -70.06598 45 ft 5 kts 147°
2026-04-29 23:44 41.25516 -70.06591 45 ft 0 kts 135°
2026-04-29 23:47 41.25516 -70.06590 45 ft 0 kts 135°
2026-04-29 23:48 41.25507 -70.06578 45 ft 2 kts 135°
2026-04-29 23:48 41.25503 -70.06574 45 ft 2 kts 135°
2026-04-29 23:48 41.25502 -70.06572 45 ft 0 kts 135°
2026-04-29 23:49 41.25493 -70.06561 45 ft 6 kts 135°
2026-04-29 23:49 41.25452 -70.06506 44 ft 9 kts 135°
2026-04-29 23:50 41.25408 -70.06514 44 ft 10 kts 225°
2026-04-29 23:50 41.25347 -70.06596 42 ft 15 kts 225°
2026-04-29 23:50 41.25163 -70.06838 39 ft 22 kts 225°
2026-04-29 23:51 41.25054 -70.06984 37 ft 21 kts 225°
2026-04-29 23:51 41.24958 -70.07112 36 ft 18 kts 225°
2026-04-29 23:51 41.24869 -70.07230 34 ft 18 kts 225°
2026-04-29 23:51 41.24817 -70.07300 33 ft 9 kts 225°
2026-04-29 23:52 41.24788 -70.07334 32 ft 0 kts 198°
2026-04-29 23:55 41.24784 -70.07335 32 ft 4 kts 192°
2026-04-29 23:55 41.24732 -70.07277 31 ft 18 kts 111°
2026-04-29 23:55 41.24862 -70.07030 35 ft 58 kts 44°
2026-04-29 23:56 41.25232 -70.06539 137 ft 86 kts 44°
2026-04-29 23:56 41.25713 -70.05916 353 ft 106 kts 42°
2026-04-29 23:56 41.26271 -70.05170 695 ft 123 kts 43°
2026-04-29 23:56 41.26962 -70.04340 1061 ft 143 kts 43°
2026-04-29 23:57 41.27781 -70.03452 1452 ft 159 kts 42°
2026-04-29 23:57 41.28687 -70.02494 1840 ft 173 kts 41°
2026-04-29 23:57 41.29854 -70.02010 2192 ft 187 kts 358°
2026-04-29 23:57 41.31069 -70.02643 2605 ft 193 kts 321°
2026-04-29 23:58 41.31859 -70.04069 3011 ft 193 kts 289°
2026-04-29 23:58 41.31988 -70.05817 3418 ft 190 kts 261°
2026-04-29 23:58 41.31825 -70.07559 3820 ft 190 kts 259°
2026-04-29 23:58 41.31657 -70.09308 4227 ft 191 kts 260°
2026-04-29 23:59 41.31493 -70.11065 4642 ft 191 kts 260°
2026-04-29 23:59 41.31329 -70.12819 5034 ft 191 kts 260°
2026-04-29 23:59 41.31162 -70.14580 5426 ft 193 kts 259°
2026-04-29 23:59 41.30992 -70.16372 5803 ft 197 kts 259°
2026-04-30 00:00 41.30823 -70.18173 6184 ft 200 kts 259°
2026-04-30 00:00 41.30649 -70.20010 6553 ft 201 kts 259°
2026-04-30 00:00 41.30473 -70.21872 6915 ft 202 kts 260°
2026-04-30 00:00 41.30296 -70.23735 7281 ft 203 kts 260°
2026-04-30 00:01 41.30118 -70.25598 7653 ft 203 kts 260°
2026-04-30 00:01 41.29941 -70.27462 8028 ft 203 kts 260°
2026-04-30 00:01 41.29762 -70.29329 8401 ft 203 kts 260°
2026-04-30 00:01 41.29584 -70.31191 8789 ft 202 kts 260°
2026-04-30 00:02 41.29406 -70.33046 9118 ft 205 kts 260°
2026-04-30 00:02 41.29223 -70.34945 9362 ft 208 kts 260°
2026-04-30 00:02 41.29038 -70.36871 9618 ft 211 kts 260°
2026-04-30 00:02 41.28851 -70.38814 9879 ft 213 kts 260°
2026-04-30 00:03 41.28662 -70.40762 9996 ft 220 kts 260°
2026-04-30 00:03 41.28461 -70.42827 9997 ft 230 kts 260°
2026-04-30 00:03 41.28255 -70.44962 10002 ft 235 kts 260°
2026-04-30 00:03 41.28044 -70.47139 10010 ft 239 kts 260°
2026-04-30 00:04 41.27830 -70.49336 10007 ft 241 kts 260°
2026-04-30 00:04 41.27613 -70.51554 10006 ft 242 kts 260°
2026-04-30 00:04 41.27396 -70.53775 10009 ft 242 kts 260°
2026-04-30 00:04 41.27178 -70.56001 10009 ft 243 kts 260°
2026-04-30 00:05 41.26961 -70.58201 10006 ft 243 kts 261°
2026-04-30 00:05 41.26742 -70.60433 10001 ft 243 kts 260°
2026-04-30 00:05 41.26521 -70.62664 10007 ft 243 kts 260°
2026-04-30 00:05 41.26300 -70.64904 10009 ft 243 kts 260°
2026-04-30 00:06 41.26079 -70.67135 10002 ft 243 kts 260°
2026-04-30 00:06 41.25858 -70.69369 10007 ft 244 kts 261°
2026-04-30 00:06 41.25636 -70.71605 10012 ft 243 kts 261°
2026-04-30 00:06 41.25413 -70.73834 10012 ft 243 kts 260°
2026-04-30 00:07 41.25191 -70.76065 10010 ft 243 kts 260°
2026-04-30 00:07 41.24968 -70.78291 10006 ft 243 kts 260°
2026-04-30 00:07 41.24745 -70.80516 10007 ft 243 kts 260°
2026-04-30 00:07 41.24520 -70.82747 10010 ft 243 kts 260°
2026-04-30 00:08 41.24300 -70.84944 10012 ft 243 kts 260°
2026-04-30 00:08 41.24075 -70.87173 10010 ft 243 kts 260°
2026-04-30 00:08 41.23850 -70.89402 10005 ft 243 kts 261°
2026-04-30 00:08 41.23624 -70.91635 10014 ft 243 kts 261°
2026-04-30 00:09 41.23397 -70.93872 10014 ft 243 kts 261°
2026-04-30 00:09 41.23171 -70.96092 10012 ft 242 kts 261°
2026-04-30 00:09 41.22947 -70.98303 10016 ft 241 kts 260°
2026-04-30 00:09 41.22722 -71.00513 10014 ft 241 kts 261°
2026-04-30 00:10 41.22496 -71.02718 10015 ft 241 kts 261°
2026-04-30 00:10 41.22272 -71.04899 10015 ft 240 kts 261°
2026-04-30 00:10 41.22046 -71.07101 10012 ft 240 kts 261°
2026-04-30 00:10 41.21820 -71.09299 10016 ft 240 kts 261°
2026-04-30 00:11 41.21595 -71.11492 10016 ft 240 kts 261°
2026-04-30 00:11 41.21368 -71.13689 10016 ft 240 kts 261°
2026-04-30 00:11 41.21141 -71.15880 10013 ft 239 kts 261°
2026-04-30 00:11 41.20914 -71.18069 10015 ft 239 kts 261°
2026-04-30 00:12 41.20686 -71.20266 10015 ft 239 kts 261°
2026-04-30 00:12 41.20459 -71.22453 10011 ft 239 kts 261°
2026-04-30 00:12 41.20234 -71.24614 10008 ft 239 kts 261°
2026-04-30 00:12 41.20005 -71.26801 10011 ft 239 kts 261°
2026-04-30 00:13 41.19777 -71.28985 10012 ft 239 kts 260°
2026-04-30 00:13 41.19548 -71.31169 10012 ft 239 kts 260°
2026-04-30 00:13 41.19319 -71.33353 10012 ft 239 kts 260°
2026-04-30 00:13 41.19090 -71.35529 10012 ft 238 kts 260°
2026-04-30 00:14 41.18859 -71.37723 10012 ft 238 kts 260°
2026-04-30 00:14 41.18629 -71.39898 10006 ft 238 kts 260°
2026-04-30 00:14 41.18399 -71.42071 10012 ft 238 kts 260°
2026-04-30 00:14 41.18168 -71.44248 10011 ft 238 kts 260°
2026-04-30 00:15 41.17941 -71.46395 10010 ft 238 kts 260°
2026-04-30 00:15 41.17709 -71.48569 10009 ft 237 kts 260°
2026-04-30 00:15 41.17478 -71.50740 10011 ft 237 kts 260°
2026-04-30 00:15 41.17247 -71.52907 10010 ft 237 kts 260°
2026-04-30 00:16 41.17015 -71.55073 10009 ft 237 kts 260°
2026-04-30 00:16 41.16773 -71.57234 10007 ft 235 kts 257°
2026-04-30 00:16 41.16211 -71.59236 10006 ft 231 kts 244°
2026-04-30 00:16 41.15536 -71.61176 10005 ft 232 kts 243°
2026-04-30 00:17 41.14865 -71.63134 10010 ft 233 kts 244°
2026-04-30 00:17 41.14203 -71.65099 10011 ft 233 kts 244°
2026-04-30 00:17 41.13538 -71.67069 10002 ft 233 kts 244°
2026-04-30 00:17 41.12871 -71.69036 10007 ft 233 kts 244°
2026-04-30 00:18 41.12205 -71.70998 10011 ft 233 kts 244°
2026-04-30 00:18 41.11549 -71.72927 10003 ft 232 kts 244°
2026-04-30 00:18 41.10887 -71.74878 10006 ft 231 kts 244°
2026-04-30 00:18 41.10228 -71.76817 10001 ft 230 kts 244°
2026-04-30 00:19 41.09569 -71.78751 10010 ft 230 kts 244°
2026-04-30 00:19 41.08913 -71.80679 10006 ft 229 kts 244°
2026-04-30 00:19 41.08256 -71.82607 10007 ft 229 kts 244°
2026-04-30 00:19 41.07604 -71.84517 10008 ft 229 kts 244°
2026-04-30 00:20 41.06945 -71.86448 10023 ft 229 kts 244°
2026-04-30 00:20 41.06288 -71.88372 10024 ft 229 kts 244°
2026-04-30 00:20 41.05632 -71.90292 10023 ft 228 kts 244°
2026-04-30 00:20 41.04977 -71.92208 10023 ft 228 kts 244°
2026-04-30 00:21 41.04321 -71.94126 10023 ft 228 kts 244°
2026-04-30 00:21 41.03666 -71.96036 10023 ft 228 kts 244°
2026-04-30 00:21 41.03016 -71.97933 10025 ft 228 kts 244°
2026-04-30 00:21 41.02360 -71.99847 10025 ft 228 kts 244°
2026-04-30 00:22 41.01705 -72.01756 10024 ft 228 kts 244°
2026-04-30 00:22 41.01048 -72.03668 10022 ft 228 kts 244°
2026-04-30 00:22 41.00392 -72.05577 10022 ft 228 kts 244°
2026-04-30 00:22 40.99736 -72.07484 10021 ft 228 kts 244°
2026-04-30 00:23 40.99081 -72.09389 10004 ft 227 kts 244°
2026-04-30 00:23 40.98426 -72.11292 10007 ft 227 kts 244°
2026-04-30 00:23 40.97769 -72.13197 10006 ft 228 kts 244°
2026-04-30 00:23 40.97113 -72.15101 10007 ft 227 kts 244°
2026-04-30 00:24 40.96464 -72.16982 10004 ft 227 kts 244°
2026-04-30 00:24 40.95809 -72.18880 10005 ft 227 kts 244°
2026-04-30 00:24 40.95142 -72.20809 10004 ft 227 kts 244°
2026-04-30 00:24 40.94492 -72.22688 10004 ft 227 kts 244°
2026-04-30 00:25 40.93837 -72.24581 10006 ft 227 kts 244°
2026-04-30 00:25 40.93183 -72.26470 10007 ft 227 kts 244°
2026-04-30 00:25 40.92523 -72.28375 10007 ft 227 kts 244°
2026-04-30 00:25 40.91870 -72.30269 10009 ft 226 kts 245°
2026-04-30 00:26 40.91561 -72.32259 10001 ft 227 kts 268°
2026-04-30 00:26 40.91624 -72.34384 10004 ft 228 kts 271°
2026-04-30 00:26 40.91701 -72.36480 10006 ft 229 kts 270°
2026-04-30 00:26 40.91769 -72.38586 10006 ft 229 kts 270°
2026-04-30 00:27 40.91831 -72.40691 10006 ft 229 kts 270°
2026-04-30 00:27 40.91895 -72.42798 10009 ft 229 kts 270°
2026-04-30 00:27 40.91959 -72.44904 10011 ft 229 kts 270°
2026-04-30 00:27 40.92023 -72.47019 10001 ft 229 kts 270°
2026-04-30 00:28 40.92085 -72.49101 9998 ft 229 kts 270°
2026-04-30 00:28 40.92148 -72.51209 10003 ft 229 kts 270°
2026-04-30 00:28 40.92210 -72.53307 10001 ft 229 kts 270°
2026-04-30 00:28 40.92272 -72.55410 10002 ft 229 kts 270°
2026-04-30 00:29 40.92333 -72.57504 9967 ft 230 kts 270°
2026-04-30 00:29 40.92373 -72.58920 9807 ft 236 kts 270°
2026-04-30 00:29 40.92438 -72.61134 9546 ft 242 kts 270°
2026-04-30 00:29 40.92503 -72.63375 9285 ft 245 kts 270°
2026-04-30 00:30 40.92567 -72.65636 9028 ft 247 kts 270°
2026-04-30 00:30 40.92632 -72.67912 8741 ft 249 kts 271°
2026-04-30 00:30 40.92696 -72.70221 8436 ft 251 kts 270°
2026-04-30 00:30 40.92761 -72.72517 8136 ft 251 kts 270°
2026-04-30 00:31 40.92825 -72.74839 7813 ft 252 kts 270°
2026-04-30 00:31 40.92888 -72.77155 7497 ft 252 kts 270°
2026-04-30 00:31 40.92923 -72.79464 7178 ft 249 kts 265°
2026-04-30 00:31 40.92496 -72.81657 6858 ft 247 kts 249°
2026-04-30 00:32 40.91903 -72.83794 6524 ft 249 kts 248°
2026-04-30 00:32 40.91310 -72.85956 6176 ft 250 kts 249°
2026-04-30 00:32 40.90731 -72.88105 6015 ft 243 kts 249°
2026-04-30 00:32 40.90180 -72.90150 6012 ft 235 kts 249°
2026-04-30 00:33 40.89634 -72.92157 6012 ft 230 kts 248°
2026-04-30 00:33 40.89095 -72.94135 6010 ft 228 kts 248°
2026-04-30 00:33 40.88561 -72.96100 6009 ft 226 kts 248°
2026-04-30 00:33 40.88030 -72.98053 6007 ft 225 kts 248°
2026-04-30 00:34 40.87500 -72.99998 5997 ft 224 kts 248°
2026-04-30 00:34 40.86972 -73.01935 6003 ft 224 kts 248°
2026-04-30 00:34 40.86445 -73.03869 6001 ft 224 kts 248°
2026-04-30 00:34 40.85918 -73.05799 6003 ft 223 kts 248°
2026-04-30 00:35 40.85390 -73.07731 6000 ft 223 kts 248°
2026-04-30 00:35 40.84864 -73.09655 5996 ft 223 kts 248°
2026-04-30 00:35 40.84346 -73.11550 6003 ft 221 kts 248°
2026-04-30 00:35 40.83844 -73.13385 5997 ft 219 kts 248°
2026-04-30 00:36 40.83327 -73.15270 6003 ft 218 kts 248°
2026-04-30 00:36 40.82801 -73.17186 5798 ft 221 kts 248°
2026-04-30 00:36 40.82297 -73.19025 5988 ft 208 kts 248°
2026-04-30 00:36 40.81814 -73.20786 5985 ft 192 kts 248°
2026-04-30 00:37 40.81402 -73.22308 5988 ft 162 kts 247°
2026-04-30 00:37 40.81024 -73.23671 5992 ft 161 kts 246°
2026-04-30 00:37 40.80636 -73.25065 5992 ft 163 kts 246°
2026-04-30 00:37 40.80246 -73.26475 5992 ft 165 kts 247°
2026-04-30 00:38 40.79854 -73.27900 6012 ft 165 kts 247°
2026-04-30 00:38 40.79461 -73.29329 6015 ft 166 kts 247°
2026-04-30 00:38 40.78998 -73.30712 6015 ft 161 kts 236°
2026-04-30 00:38 40.78808 -73.32159 5952 ft 173 kts 279°
2026-04-30 00:39 40.79557 -73.33510 5660 ft 198 kts 324°
2026-04-30 00:39 40.80852 -73.34350 5218 ft 215 kts 335°
2026-04-30 00:39 40.82260 -73.35097 4764 ft 218 kts 337°
2026-04-30 00:39 40.83626 -73.35794 4344 ft 208 kts 337°
2026-04-30 00:40 40.84994 -73.36500 3582 ft 213 kts 337°
2026-04-30 00:40 40.86377 -73.37235 2870 ft 214 kts 337°
2026-04-30 00:40 40.87733 -73.37969 2353 ft 206 kts 337°
2026-04-30 00:40 40.89025 -73.38678 2012 ft 190 kts 334°
2026-04-30 00:41 40.89830 -73.39811 2017 ft 162 kts 282°
2026-04-30 00:41 40.89818 -73.41319 2014 ft 171 kts 258°
2026-04-30 00:41 40.89643 -73.42939 2009 ft 184 kts 258°
2026-04-30 00:41 40.89448 -73.44656 2008 ft 193 kts 258°
2026-04-30 00:42 40.89243 -73.46439 2008 ft 200 kts 258°
2026-04-30 00:42 40.89032 -73.48282 2007 ft 204 kts 258°
2026-04-30 00:42 40.88549 -73.49974 2001 ft 192 kts 227°
2026-04-30 00:42 40.87622 -73.51134 2006 ft 181 kts 218°
2026-04-30 00:43 40.86678 -73.52181 1999 ft 174 kts 217°
2026-04-30 00:43 40.85748 -73.53207 2003 ft 173 kts 214°
2026-04-30 00:43 40.84663 -73.53798 2006 ft 171 kts 186°
2026-04-30 00:43 40.83467 -73.53830 2010 ft 174 kts 176°
2026-04-30 00:44 40.82251 -73.53714 2013 ft 175 kts 170°
2026-04-30 00:44 40.81163 -73.53109 2013 ft 168 kts 148°
2026-04-30 00:44 40.80297 -73.52102 2014 ft 167 kts 137°
2026-04-30 00:44 40.79495 -73.51001 1965 ft 160 kts 135°
2026-04-30 00:45 40.78764 -73.49962 1774 ft 156 kts 134°
2026-04-30 00:45 40.78075 -73.48954 1561 ft 135 kts 134°
2026-04-30 00:45 40.77518 -73.48132 1397 ft 105 kts 134°
2026-04-30 00:45 40.77095 -73.47507 1265 ft 81 kts 135°
2026-04-30 00:46 40.76830 -73.46894 1152 ft 82 kts 104°
2026-04-30 00:46 40.76561 -73.46293 1069 ft 77 kts 163°
2026-04-30 00:46 40.76058 -73.46234 1104 ft 71 kts 152°
2026-04-30 00:46 40.75772 -73.45660 1069 ft 80 kts 117°
2026-04-30 00:47 40.75468 -73.45069 851 ft 75 kts 132°
2026-04-30 00:47 40.75119 -73.44583 751 ft 70 kts 133°
2026-04-30 00:47 40.74766 -73.44058 672 ft 77 kts 132°
2026-04-30 00:47 40.74404 -73.43527 497 ft 78 kts 133°
2026-04-30 00:48 40.74040 -73.43005 336 ft 77 kts 133°
2026-04-30 00:48 40.73676 -73.42480 212 ft 77 kts 131°
2026-04-30 00:48 40.73317 -73.41963 85 ft 72 kts 130°
2026-04-30 00:48 40.73086 -73.41629 77 ft 24 kts 132°
2026-04-30 00:49 40.72974 -73.41550 77 ft 19 kts 175°
2026-04-30 00:49 40.72828 -73.41548 81 ft 23 kts 178°
2026-04-30 00:49 40.72645 -73.41545 77 ft 29 kts 178°
2026-04-30 00:49 40.72488 -73.41542 71 ft 14 kts 180°
2026-04-30 00:50 40.72388 -73.41540 72 ft 16 kts 179°
2026-04-30 00:50 40.72284 -73.41538 67 ft 13 kts 178°
2026-04-30 00:50 40.72208 -73.41537 65 ft 9 kts 193°
2026-04-30 00:50 40.72185 -73.41610 67 ft 9 kts 270°
2026-04-30 00:51 40.72162 -73.41676 67 ft 10 kts 176°
2026-04-30 00:51 40.72113 -73.41653 64 ft 7 kts 87°
2026-04-30 00:51 40.72131 -73.41624 65 ft 0 kts
2026-04-30 00:51 40.72135 -73.41624 64 ft 1 kts